This is the latest recevied weather packets stored in our database for station/object KC3BBT-13. If no packets are shown the sender has not sent any weather packets the latest 1 day(s).
| Time | Temp. | Humidity | Pressure | Rain* | Wind** | Luminosity | Snow |
|---|---|---|---|---|---|---|---|
| 1777987256 | 19.44° C | 55% | 1013.4 hPa | 0 mm | 0 m/s | - | - |
| 1777986381 | 18.89° C | 55% | 1013.4 hPa | 0 mm | 0 m/s | - | - |
| 1777985571 | 18.33° C | 57% | 1013.6 hPa | 0 mm | 0 m/s | - | - |
| 1777984816 | 17.78° C | 57% | 1013.6 hPa | 0 mm | 0.89 m/s, 200° | - | - |
| 1777984017 | 17.78° C | 58% | 1013.7 hPa | 0 mm | 0 m/s | - | - |
| 1777983951 | 17.78° C | 58% | 1013.7 hPa | 0 mm | 0 m/s | - | - |
| 1777983181 | 17.22° C | 59% | 1013.5 hPa | 0 mm | 1.34 m/s, 209° | - | - |
| 1777982416 | 16.67° C | 59% | 1013.4 hPa | 0 mm | 0 m/s | - | - |
| 1777981591 | 16.67° C | 60% | 1013.2 hPa | 0 mm | 0 m/s | - | - |
| 1777980848 | 16.11° C | 60% | 1013.2 hPa | 0 mm | 0 m/s | - | - |
| 1777980101 | 16.11° C | 60% | 1013.2 hPa | 0 mm | 0 m/s | - | - |
| 1777979327 | 16.11° C | 60% | 1013 hPa | 0 mm | 0 m/s | - | - |
| 1777979246 | 16.11° C | 60% | 1013 hPa | 0 mm | 0 m/s | - | - |
| 1777978598 | 16.11° C | 61% | 1012.9 hPa | 0 mm | 0 m/s | - | - |
| 1777978489 | 16.11° C | 61% | 1012.9 hPa | 0 mm | 0 m/s | - | - |
| 1777977678 | 15.56° C | 61% | 1012.7 hPa | 0 mm | 0 m/s | - | - |
| 1777976801 | 15.56° C | 62% | 1012.6 hPa | 0 mm | 0.45 m/s, 210° | - | - |
| 1777976059 | 15.56° C | 61% | 1012.5 hPa | 0 mm | 0.89 m/s, 230° | - | - |
| 1777975397 | 15.56° C | 62% | 1012.5 hPa | 0 mm | 0 m/s | - | - |
| 1777975166 | 15.56° C | 62% | 1012.5 hPa | 0 mm | 0 m/s | - | - |
| 1777974350 | 15.56° C | 62% | 1012.4 hPa | 0 mm | 0 m/s | - | - |
| 1777973519 | 15.56° C | 62% | 1012.3 hPa | 0 mm | 0 m/s | - | - |
| 1777972795 | 15.56° C | 62% | 1012.2 hPa | 0 mm | 0 m/s | - | - |
| 1777971991 | 16.11° C | 62% | 1012 hPa | 0 mm | 2.24 m/s, 142° | - | - |
| 1777971254 | 16.11° C | 63% | 1012.2 hPa | 0 mm | 0 m/s | - | - |
* Rain latest hour (hover to see other rain measurements)
** Current wind speed in m/s (hover to see current wind gust speed)